Content
SEND FEEDBACK

Daily
Averages
Monthly
Summary
Honduras

AGUA SALADA, HONDURAS


Home > Central America > Honduras
Elevation: 3304 feet     Latitude: 14 01N     Longitude: 087 13W

WEATHER
 
SELECT A DAY
Number of Records: 56,644;   Date Range: 7/9/96 - 9/28/14
 
SHARE

PRINT THIS DATA

[ ← Previous Day ]
WEATHER ALMANAC - FEBRUARY 13, 2013
[ Next Day → ]
[ °C ]   °F
Weather ElementAverageHighLow
Temperature71 °F86 °F (2:00 pm)57 °F (6:00 am)
Dewpoint57.2 °F73.4 °F (12:00 pm)54 °F (3:00 pm)
Humidity64.2 %100 % (6:00 am)24 % (3:00 pm)
Barometer30.00 in30.09 in (12:00 am)29.69 in (3:00 pm)
Wind Speed3.5 mph9.2 mph (1:00 pm)
Weather ElementAverage
Visibility6.8 mi
Wind DirectionE (95.2 °)

Weather ElementTotal
Precipitation---
Cooling Degree Days6.5 (Base 65)
Growing Degree Days21.5 (Base 50)
Averaged from 31 records on February 13, 2013
WEATHER CONDITIONS BREAKOUT
WIND DIRECTION BREAKOUT
WEATHER BY HOUR - FEBRUARY 13, 2013
[ °C ]   °F
Local TimeTemperatureDewpointHumidityBarometerVisibilityWind DirectionWind SpeedGust SpeedPrecipitationEventsConditions
12:00 AM62.6 °F57.2 °F82 %30.09 in6.2 miWSW (240°)3.5 mphPartly Cloudy
1:00 AM62.6 °F57.2 °F82 %30.09 in6.2 miWSW (240°)4.6 mphPartly Cloudy
2:00 AM60.8 °F57.2 °F88 %30.09 in6.2 miCalmPartly Cloudy
3:00 AM58.0 °F55.0 °F87 %29.94 in12.0 miWSW (250°)3.5 mphHaze
3:00 AM57.2 °F55.4 °F94 %30.04 in6.2 miWSW (250°)3.5 mphMostly Cloudy
4:00 AM57.2 °F55.4 °F94 %30.01 in6.2 miWSW (240°)3.5 mphScattered Clouds
5:00 AM57.2 °F55.4 °F94 %30.04 in6.2 miCalmPartly Cloudy
6:00 AM57.2 °F57.2 °F100 %30.06 in6.2 miCalmPartly Cloudy
6:00 AM57.0 °F56.0 °F97 %29.97 in6.0 miCalmMist
7:00 AM57.2 °F57.2 °F100 %30.06 in6.2 miCalmScattered Clouds
8:00 AM64.4 °F60.8 °F88 %30.09 in6.2 miCalmPartly Cloudy
9:00 AM72.0 °F61.0 °F59 %29.92 in6.0 miNNE (20°)4.6 mphHaze
9:00 AM71.6 °F60.8 °F69 %30.09 in6.2 miNNE (20°)4.6 mphPartly Cloudy
10:00 AM75.2 °F60.8 °F61 %30.09 in6.2 miNE (50°)4.6 mphPartly Cloudy
11:00 AM78.8 °F59.0 °F51 %30.09 in6.2 miEast (90°)6.9 mphPartly Cloudy
12:00 PM80.6 °F73.4 °F79 %30.06 in6.2 miCalmPartly Cloudy
12:00 PM81.0 °F55.0 °F31 %29.82 in9.0 miCalmHaze
1:00 PM84.2 °F55.4 °F37 %30.01 in6.2 miNNE (20°)9.2 mphPartly Cloudy
2:00 PM86.0 °F55.4 °F35 %29.98 in6.2 miNNE (30°)6.9 mphScattered Clouds
3:00 PM86.0 °F54.0 °F24 %29.69 in11.0 miSouth (180°)3.5 mphHaze
3:00 PM86.0 °F55.4 °F35 %29.95 in6.2 miSouth (180°)3.5 mphMostly Cloudy
4:00 PM82.4 °F55.4 °F39 %29.95 in6.2 miEast (90°)4.6 mphMostly Cloudy
5:00 PM80.6 °F55.4 °F42 %29.95 in6.2 miESE (110°)5.8 mphMostly Cloudy
6:00 PM77.0 °F55.4 °F47 %29.98 in6.2 miEast (90°)5.8 mphMostly Cloudy
6:00 PM78.0 °F55.0 °F35 %29.77 in11.0 miEast (90°)5.8 mphHaze
7:00 PM75.2 °F55.4 °F50 %30.01 in6.2 miEast (100°)4.6 mphScattered Clouds
8:00 PM73.4 °F55.4 °F53 %30.04 in6.2 miESE (110°)4.6 mphMostly Cloudy
9:00 PM72.0 °F56.0 °F47 %29.89 in6.0 miEast (90°)4.6 mphHaze
9:00 PM71.6 °F55.4 °F57 %30.06 in6.2 miEast (90°)4.6 mphScattered Clouds
10:00 PM69.8 °F57.2 °F64 %30.06 in6.2 miCalmScattered Clouds
11:00 PM68.0 °F57.2 °F68 %30.06 in6.2 miSouth (180°)4.6 mphPartly Cloudy
Hourly data recorded from MHTG, located miles away from Agua Salada, Honduras







STORIES FROM OUR PARTNERS